Regional Weather Roundup
Issued by NWS

Home | Current Version | Previous Version | Text Only | Print | Product List | Glossary Off
Versions: 1 2 3 4 5 6 7 8 9 10 11 12 13 14 15 16 17 18 19 20 21 22 23 24 25 26 27 28 29 30 31 32 33 34 35 36 37 38 39 40 41 42 43 44 45 46 47 48 49 50

000
ASUS43 KDTX 241110
RWRMI
MICHIGAN HOURLY REGIONAL WEATHER ROUNDUP
NATIONAL WEATHER SERVICE DETROIT/PONTIAC MI
700 AM EDT SUN MAY 24 2015

NOTE: "FAIR" INDICATES FEW OR NO CLOUDS BELOW 12,000 FEET WITH NO
SIGNIFICANT WEATHER AND/OR OBSTRUCTION TO VISIBILITY.

MIZ047>049-052>055-059>063-066>070-074>076-081>083-241200-
SOUTHEAST LOWER MICHIGAN

CITY           SKY/WX    TMP DP  RH WIND       PRES   REMARKS
ADRIAN         CLEAR     51  47  86 CALM      30.29R
ALMA           PTCLDY    51  47  88 CALM      30.25S
ANN ARBOR      CLEAR     47  45  93 S3        30.27S
BAD AXE        CLEAR     45  40  80 CALM      30.26S
CARO           PTCLDY    45  44  95 CALM      30.25S
DETROIT CITY   CLEAR     56  45  66 CALM      30.28R
DETROIT        PTCLDY    55  50  83 S5        30.28R
FLINT          CLOUDY    63  45  51 S7        30.26R
GROSSE ILE     CLEAR     57  52  82 CALM      30.27R
HILLSDALE      CLEAR     55  51  86 CALM      30.28S
HOWELL         CLEAR     54  43  67 CALM      30.27R

CITY           SKY/WX    TMP DP  RH WIND       PRES   REMARKS
JACKSON        CLEAR     53  47  79 SW5       30.27S
LAMBERTVILLE   CLEAR     57  46  67 CALM      30.29R
LANSING        CLEAR     59  47  64 S3        30.26S
LAPEER         CLOUDY    49  46  89 CALM      30.26S
MASON          CLEAR     54  45  72 CALM      30.27R
MONROE         CLEAR     52  48  87 CALM      30.27R
MT. CLEMENS    CLOUDY    52  48  86 CALM      30.25R
PONTIAC        MOCLDY    55  47  74 CALM      30.27R
PORT HOPE        N/A     56  40  55 SW8       30.23S
PORT HURON     CLOUDY    45  45 100 CALM      30.27S
TRI CITIES     CLEAR     56  44  64 SW5       30.25S
MIDLAND        MOCLDY    47  45  91 CALM      30.24R
TROY           PTCLDY    58  46  63 SW3       30.29S
SAGINAW HB     CLEAR     54  41  62 CALM      30.24S
$$
MIZ043>046-050>051-056>058-064>065-071>073-077>080-241200-
SOUTHWEST LOWER MICHIGAN

CITY           SKY/WX    TMP DP  RH WIND       PRES   REMARKS
BATTLE CREEK   PTCLDY    55  47  74 SE3       30.26S
BENTON HARBOR  MOCLDY    51  47  86 SE5       30.22F
BIG RAPIDS     CLEAR     47  43  84 CALM      30.23S
COLDWATER      PTCLDY    51  49  92 CALM      30.27S
FREMONT        FAIR      54  48  82 E3        30.22F
HOLLAND        MOCLDY    56  46  69 SE3       30.23F
GRAND RAPIDS   MOCLDY    55  48  77 SE5       30.24S
IONIA          FAIR      60  47  63 SW3       30.24S
KALAMAZOO      PTCLDY    52  47  83 S3        30.26S
LUDINGTON      PTCLDY    51  47  87 CALM      30.20S
MARSHALL       PTCLDY    55  48  79 CALM      30.26S
MOUNT PLEASANT CLOUDY    53  50  90 CALM      30.23S
MUSKEGON       MOCLDY    53  47  79 SE6       30.22F
SOUTH HAVEN    MOCLDY    52  48  84 CALM      30.23S
$$
MIZ016>042-241200-
NORTHERN LOWER MICHIGAN

CITY           SKY/WX    TMP DP  RH WIND       PRES   REMARKS
ALPENA         PTCLDY    55  42  61 CALM      30.21R
BEAVER ISLAND  CLOUDY    59  40  49 W7        30.19R
BELLAIRE       CLOUDY    48  45  88 CALM      30.22R
CADILLAC       PTCLDY    47  42  82 CALM      30.23S
CHARLEVOIX     CLOUDY    52  43  70 CALM      30.23F
FRANKFORT      PTCLDY    52  42  70 CALM      30.20S
GAYLORD        CLOUDY    56  39  53 N6        30.23R
GRAYLING       MOCLDY    46  41  81 CALM      30.24R
HARBOR SPRINGS CLOUDY    52  40  64 CALM      30.21S
HOUGHTON LAKE  MOCLDY    46  43  89 CALM      30.24S
MANISTEE       CLEAR     46  41  81 E5        30.21S
OSCODA         CLEAR     48  41  75 SW6       30.23S
PELLSTON       CLOUDY    62  40  44 W10       30.19S
ROGERS CITY    PTCLDY    60  40  48 SW9       30.20S
TRAVERSE CITY  MOCLDY    59  45  59 CALM      30.20R
$$
MIZ007>008-015-241200-
EASTERN UPPER MICHIGAN

CITY           SKY/WX    TMP DP  RH WIND       PRES   REMARKS
KINROSS        CLEAR     50  39  66 W6        30.18R
MACKINAC ISLAN MOCLDY    55  41  61 SW13G20   30.19R
NEWBERRY       PTCLDY    50  41  72 W3        30.18R
S. S. MARIE    CLEAR     48  37  65 CALM      30.17R
MUNISING         N/A     54  42  64 S8        30.15R
$$
MIZ004>006-011>014-085-241200-
CENTRAL UPPER MICHIGAN

CITY           SKY/WX    TMP DP  RH WIND       PRES   REMARKS
MANISTIQUE     CLOUDY    52  43  73 CALM      30.17S
ESCANABA       CLOUDY    55  45  67 CALM      30.16S
MENOMINEE      CLOUDY    55  46  71 CALM      30.16F
SAWYER-GWINN   MOCLDY    52  41  66 S3        30.17S
$$
MIZ001>003-009>011-084-241200-
WESTERN UPPER MICHIGAN

CITY           SKY/WX    TMP DP  RH WIND       PRES   REMARKS
IRON MOUNTAIN  CLOUDY    57  49  74 CALM      30.17S
HOUGHTON       PTCLDY    60  41  49 W14       30.13S
COPPER HARBOR    N/A     66  42  41 VRB3      30.09S
IRONWOOD       CLOUDY    48  46  93 CALM      30.14S
$$

ABBREVIATIONS USED IN REMARKS
   TC - TEMPERATURE IN CELSIUS
  WCI - WIND CHILL INDEX
   HX - HEAT INDEX
  VSB - VISIBILITY



USA.gov is the U.S. government's official web portal to all federal, state and local government web resources and services.